Regional Weather Roundup
Issued by NWS Jackson, KY

Home | Current Version | Previous Version | Text Only | Print | Product List | Glossary On
Versions: 1 2 3 4 5 6 7 8 9 10 11 12 13 14 15 16 17 18 19 20 21 22 23 24 25 26 27
000
ASUS43 KJKL 031110
RWRJKL

EAST KENTUCKY HOURLY WEATHER ROUNDUP
NATIONAL WEATHER SERVICE JACKSON KY
700 AM EDT TUE AUG 03 2021

NOTE: "FAIR" INDICATES FEW OR NO CLOUDS BELOW 12,000 FEET WITH
NO SIGNIFICANT WEATHER AND/OR OBSTRUCTIONS TO VISIBILITY.

* THESE REPORTS ARE NOT UNDER NWS QUALITY CONTROL AND MAY NOT
  REPORT WEATHER SUCH AS PRECIPITATION AND FOG.

KYZ079-080-083-085-087-088-110-112-115-119-120-031200
...EASTERN KENTUCKY...

CITY           SKY/WX    TMP DP  RH WIND       PRES   REMARKS
JACKSON        PTCLDY    63  54  72 CALM      30.06R
LONDON         CLEAR     61  58  90 N3        30.05R
SOMERSET*      MOCLDY    59  48  67 CALM      30.07R
MONTICELLO*    PTCLDY    57  57 100 CALM      30.07R FOG
WILLIAMSBURG*    N/A     55  55 100 CALM      30.05R VSB 1/2
MIDDLESBORO*   CLOUDY    60  60 100 CALM      30.05S
HARLAN APT*    PTSUNNY   59  59 100 CALM      30.06S
PIKE CO APT*   CLOUDY    63  56  80 CALM      30.06S
BIG SANDY APT* PTSUNNY   59  59 100 CALM      30.06S
MOREHEAD APT*  MOSUNNY   59  54  82 CALM      30.08R
ASHLAND*       MOCLDY    58  58 100 CALM      30.07R
$$

KYZ035-036-041-042-044-050-067-078-099-031200
...CENTRAL KENTUCKY...

CITY           SKY/WX    TMP DP  RH WIND       PRES   REMARKS
MT STERLING*   CLEAR     55  55 100 CALM      30.08R
FLEMING/MASON* CLEAR     57  57 100 NE3       30.08S
DANVILLE*      CLEAR     55  55 100 CALM      30.07S
RICHMOND*        N/A     57  55  94 CALM      30.06R
LEXINGTON      CLEAR     56  54  93 CALM      30.06R
FRANKFORT      CLEAR     57  55  93 N3        30.06R
LOUISVILLE     MOCLDY    65  59  81 N3        30.06R
GLASGOW*       CLEAR     58  58 100 CALM      30.04S
BOWLING GREEN  CLEAR     60  57  89 NE3       30.04R
$$

KYZ091>093-OHZ055-061-077-WVZ005-015-034-035-042-031200
...SOUTHERN OHIO/WEST VIRGINIA...

CITY           SKY/WX    TMP DP  RH WIND       PRES   REMARKS
COVINGTON      CLEAR     61  54  77 CALM      30.08R
COLUMBUS       PTCLDY    59  53  80 CALM      30.10R
DAYTON         CLEAR     58  50  75 CALM      30.12R
WILMINGTON     CLEAR     55  52  89 NE5       30.10R
HUNTINGTON     CLEAR     60  57  89 NE5       30.06R
CHARLESTON     MOCLDY    59  58  96 NE3       30.07R
PINEVILLE*     CLOUDY    63  59  88 MISG      30.13S
BECKLEY        CLOUDY    63  57  81 SE7       30.12R
BLUEFIELD      MOCLDY    62  57  83 E5        30.14R
LOGAN CO APT*  CLOUDY    64  57  77 MISG      30.07S
$$

VAZ002-007-008-TNZ017-027-036-066-071-031200
...SOUTHWEST VIRGINIA/EAST TENNESSEE...

CITY           SKY/WX    TMP DP  RH WIND       PRES   REMARKS
WISE*          CLOUDY    63  54  72 CALM      30.11S
JONESVILLE*    CLOUDY    63 N/A N/A S3        30.05S
ABINGDON*      CLOUDY    66  56  69 E6        30.08S
BRISTOL        MOCLDY    67  60  78 CALM      30.04S
SEVIERVILLE*   SUNNY     64  64 100 CALM      30.01R FOG
KNOXVILLE      CLOUDY    68  62  81 E3        30.00R
LAFOLLETTE*    CLOUDY    64  63  94 CALM        N/A
OAK RIDGE      CLOUDY    66  62  87 CALM      30.02S
CROSSVILLE     CLEAR     59  58  96 CALM      30.06R FOG
NASHVILLE      CLEAR     63  58  83 CALM      30.03R
$$

...KEY TO REMARKS...
VSB - VISIBILITY IN MILES
WCI - WIND CHILL INDEX
HX  - HEAT INDEX

$$



USA.gov is the U.S. government's official web portal to all federal, state and local government web resources and services.